Location: New Town
(33.2710°N, 90.7534°W)
Time: 12:39:04
(UTC+00:00)

Explorer 11/Cluster Stage 4 - Pass Details

Date: 19 May 2021
Orbit: 467 x 1257 km, 28.8° (Epoch: 14 June)

Event Time Altitude Azimuth Distance (km) Brightness Sun altitude
Rises 00:48:05 0° 252° (WSW) 3,743 10.9 1.2°
Reaches altitude 10° 00:50:40 10° 249° (WSW) 2,893 10.3 0.7°
Maximum altitude 00:57:51 60° 171° (S) 1,345 7.7 -0.7°
Drops below altitude 10° 01:05:54 10° 95° (E) 3,224 9.1 -2.2°
Sets 01:08:55 0° 91° (E) 4,195 9.7 -2.8°
Enters shadow 01:09:06 -1° 91° (E) 4,255 9.8 -2.8°
